Starlink 32940

operational
NORAD ID: 63568 Int'l Des: 2025-075 Owner: SPXS Country: US Constellation: starlink
LEOCIRCULAR

Über Starlink 32940

Beschreibung wird geladen...

Live-Position

3D-Globus wird geladen...

Nächste Überflüge

Höhenverlauf

Altitude vs Time

uPlot chart will show altitude changes over time

Zweizeiliger Elementsatz

1 63568U 25075W 25258.09783732 .00012283 00000-0 45502-3 0 9993
2 63568 42.9991 182.1912 0001395 269.2274 90.8417 15.27587448 25072
Epoch: 15. Sept. 2025 • Age: 10 hours

Aktueller Status

Höhe 483.7 km
Geschwindigkeit 7.62 km/s
Subsatellitenpunkt -6.51°S, 176.8°W
Startdatum 13. Apr. 2025
Alter 0.4 years
Typ internet

Technische Details

Klassifizierung Payload
Masse 730.00 kg
Trockenmasse 700.00 kg
Gesamtmasse 730.00 kg
Länge 0.30 m
Durchmesser 4.10 m
Spannweite 29.00 m
Form Box + pan
Hersteller SPXS
Bus-Typ Starlink V2M
Phasenstatus In Orbit
Besitzer/Staat SPXS/US

Große Konstellationen

Loading constellations...